Flag for United Kingdom Weather past 2 weeks in Loughton, England, United Kingdom

Now
54 °F

Clear.


Feels Like: 53 °F
Forecast: 54 / 67 °F
Wind: 5 mph from Northwest

Location: Stansted Airport

Current Time: Jul 29, 2015 at 11:58:02 PM

Latest Report: Jul 29, 2015 at 11:20 PM


Visibility: 10 mi

Pressure: 29.95 "Hg

Humidity: 82%

Dew point: 48 °F

Location of LoughtonLocation

Historic Weather in Loughton — Graph

°F

Loughton temperature yesterday

Maximum temperature yesterday: 66 °F (at 3:50 PM)
Minimum temperature yesterday: 52 °F (at 10:20 PM)
Average temperature yesterday: 59 °F

Past Weeks' High & Low Weather Summary

 TemperatureHumidityPressure
High77 °F (Jul 17, 1:20 PM)100% (Jul 14, 11:20 PM)30.09 "Hg (Jul 14, 11:20 PM)
Low46 °F (Jul 23, 3:50 AM)36% (Jul 18, 2:50 PM)29.42 "Hg (Jul 26, 8:20 PM)
Average61 °F72%29.86 "Hg
* Reported Jul 14 10:20 PM — Jul 29 10:20 PM, Loughton, Weather by CustomWeather, © 2015

Note: Actual official high and low records may vary slightly from our data, if they occured in-between our weather recording intervals... More about our weather records

Advertising

Loughton weather history for previous 24 hours

 ConditionsComfort  
Time TempWeatherWind HumidityBarometerVisibility
10:20 PM
Wed, Jul 29
55 °FPassing clouds.6 mph77%29.95 "HgN/A
9:50 PM55 °FSunny.6 mph77%29.95 "Hg10 mi
9:20 PM55 °FScattered showers. Passing clouds.7 mph77%29.95 "HgN/A
8:50 PM55 °FPassing clouds.7 mph72%29.92 "HgN/A
8:20 PM57 °FScattered showers. Passing clouds.5 mph67%29.92 "HgN/A
7:50 PM57 °FPassing clouds.6 mph67%29.92 "HgN/A
7:20 PM59 °FPassing clouds.8 mph63%29.89 "HgN/A
6:50 PM63 °FPassing clouds.8 mph52%29.89 "HgN/A
6:20 PM64 °FPassing clouds.9 mph49%29.89 "HgN/A
5:50 PM64 °FPassing clouds.9 mph52%29.89 "HgN/A
5:20 PM64 °FPassing clouds.10 mph49%29.89 "HgN/A
4:50 PM66 °FPassing clouds.8 mph49%29.89 "HgN/A
4:20 PM64 °FPassing clouds.9 mph49%29.86 "HgN/A
3:50 PM64 °FPassing clouds.12 mph49%29.86 "HgN/A
3:20 PM64 °FPassing clouds.9 mph49%29.86 "HgN/A
2:50 PM63 °FPassing clouds.10 mph52%29.86 "HgN/A
2:20 PM61 °FPassing clouds.8 mph55%29.86 "HgN/A
1:50 PM61 °FScattered clouds.9 mph55%29.86 "HgN/A
1:20 PM61 °FPartly sunny.10 mph55%29.86 "HgN/A
12:50 PM61 °FScattered clouds.10 mph55%29.83 "HgN/A
12:20 PM61 °FScattered clouds.9 mph55%29.83 "HgN/A
11:50 AM61 °FScattered clouds.12 mph55%29.83 "HgN/A
11:20 AM61 °FScattered clouds.10 mph59%29.83 "HgN/A
10:50 AM61 °FPartly sunny.10 mph59%29.80 "HgN/A
10:20 AM59 °FPartly sunny.12 mph59%29.80 "HgN/A
9:50 AM59 °FScattered clouds.12 mph63%29.80 "HgN/A
9:20 AM57 °FPassing clouds.12 mph67%29.80 "HgN/A
8:20 AM54 °FPassing clouds.9 mph77%29.80 "HgN/A
7:50 AM52 °FPassing clouds.9 mph82%29.77 "HgN/A
7:20 AM50 °FPassing clouds.7 mph88%29.77 "HgN/A
6:50 AM48 °FPassing clouds.6 mph94%29.77 "HgN/A
6:20 AM48 °FSunny.6 mph87%29.77 "Hg10 mi
5:50 AM48 °FClear.7 mph87%29.77 "Hg10 mi
5:20 AM48 °FClear.8 mph87%29.77 "Hg10 mi
4:50 AM48 °FClear.9 mph94%29.77 "Hg10 mi
4:20 AM48 °FClear.7 mph94%29.77 "Hg10 mi
3:50 AM46 °FClear.6 mph93%29.77 "Hg10 mi
3:20 AM50 °FClear.8 mph88%29.77 "Hg10 mi
2:50 AM50 °FClear.8 mph88%29.77 "Hg10 mi
2:20 AM52 °FClear.8 mph82%29.77 "Hg10 mi
1:50 AM52 °FClear.7 mph88%29.77 "Hg10 mi
1:20 AM54 °FClear.8 mph82%29.77 "Hg10 mi
12:50 AM52 °FCool.7 mph82%29.77 "HgN/A
12:20 AM54 °FClear.8 mph77%29.77 "Hg10 mi
11:50 PM
Tue, Jul 28
54 °FClear.9 mph77%29.77 "Hg10 mi
Weather by CustomWeather, © 2015

See weather overviewHow to use our weather pages